Regional Weather Roundup
Issued by NWS Charleston, SC

Current Version | Previous Version | Graphics & Text | Print | Product List | Glossary On
Versions: 1 2 3 4 5 6 7 8 9 10 11 12 13 14 15 16 17 18 19 20 21 22 23 24 25 26 27 28 29 30 31 32 33 34 35 36 37 38 39 40 41 42 43 44 45 46 47 48 49 50
000
ASUS42 KCHS 140510
RWRCHS

REGIONAL WEATHER ROUNDUP
NATIONAL WEATHER SERVICE CHARLESTON SC
100 AM EDT MON JUL 14 2014

NOTE: "FAIR" INDICATES FEW OR NO CLOUDS BELOW 12,000 FEET WITH NO
SIGNIFICANT WEATHER AND/OR OBSTRUCTIONS TO VISIBILITY.

NOT ALL STATIONS ARE QUALITY CONTROLLED BY THE NATIONAL
WEATHER SERVICE. USE DATA WITH CAUTION...ESPECIALLY
DEWPOINT OBSERVATIONS.

SCZ027-030-031-034>040-042>050-140600-
...SOUTH CAROLINA...

CITY           SKY/WX    TMP DP  RH WIND       PRES   REMARKS
N CHARLESTON   PTCLDY    77  73  87 S3        30.07F
WATERFRONT PRK   N/A     81 N/A N/A SW7         N/A
FORT JOHNSON   NOT AVBL
MOUNT PLEASANT FAIR      73  73 100 CALM      30.08R
JOHNS ISLAND   PTCLDY    81  66  61 SW5       30.08S
PINOPOLIS        N/A     79  72  78 S2        29.99F
MONCKS CORNER    N/A     75  73  94 CALM      30.08R
SUMMERVILLE    FAIR      73  73 100 CALM      30.08S
BEAUFORT MCAS  PTCLDY    80  75  84 SW6       30.07F
BEAUFORT ARPT  FAIR      79  77  94 S6        30.07F
HILTON HEAD IS PTCLDY    81  77  89 S5        30.09S
GEORGETOWN     NOT AVBL
WALTERBORO     PTCLDY    77 N/A N/A SW3       30.08S
ORANGEBURG     PTCLDY    76  71  85 S5        30.08R
BARNWELL       FAIR      77  73  88 S6        30.08S
AIKEN          FAIR      77  73  88 S7        30.10S
MANNING        FAIR      79  79 100 S5        30.07S
KINGSTREE      NOT AVBL
COLUMBIA       PTCLDY    79  71  76 SW8       30.05R
SUMTER         PTCLDY    76  72  87 S8        30.05R
FLORENCE       CLEAR     76  72  87 SW7       30.06R
MYRTLE BEACH   CLEAR     77  72  83 SW5       30.08S
N MYRTLE BEACH MOCLDY    79  72  79 W5        30.06F

$$

GAZ063-065-086>088-099>101-113>116-118-119-134-136>141-150-140600-
...GEORGIA...

CITY           SKY/WX    TMP DP  RH WIND       PRES   REMARKS
SAVANNAH ARPT  PTCLDY    78  74  87 SW7       30.09S
HUNTER AAF     PTCLDY    79  76  92 SW3       30.07R
FORT STEWART   CLEAR     75  74  95 S3        30.08S
STATESBORO     NOT AVBL
SYLVANIA       CLEAR     77  76  98 SW3       30.09S
CLAXTON        FAIR      77  77 100 CALM      30.08F
THOMSON        PTCLDY    76  74  96 CALM      30.10S
AUGUSTA-BUSH   PTCLDY    76  72  87 S6        30.06R
AUGUSTA-DANIEL PTCLDY    79  73  82 S7        30.07S
SWAINSBORO     FAIR      79  79 100 S5        30.08S
VIDALIA          N/A     77  75  94 S5        30.08F
ALMA           PTCLDY    77  73  87 S6        30.09S
WAYCROSS       CLEAR     80  78  94 S5        30.09F
JESUP          NOT AVBL
BRUNSWICK      CLEAR     81  73  78 CALM      30.09F
SAINT SIMONS   CLEAR     80  75  84 S8        30.09F

$$

SCZ027-028-034-036>038-045-046-048>050-GAZ119-141-140600-
...LAKE AND SUPPLEMENTAL COASTAL OBSERVATIONS...

STATION/POSITION TIME  TEMP    WIND        PRES    WAVE   SWELL
                       AIR SEA DIR/SP/G            HT/PER HT/PER/DIR
                 (UTC) (F)     (DEG/KT/KT) (MB)    (FT/S) (FT/S/D)
UPR LAKE MARION  NOT AVBL
WINYAH BAY       0400   78     230/  5     1018.0S
LAKE MURRAY      0400   80     200/ 11/ 14 1016.9S
ACE BASIN NERRS  0400   80        CALM     1018.0S
FORT PULASKI     0500   81 78  200/  9/ 13   N/A
SAPELO ISLAND    0400   81     180/ 11     1019.0S

$$

ANZ835-935-AMZ111-154-330-350-352-354-374-450-454-472-140600-
...C-MAN AND BUOY OBSERVATIONS...

STATION/POSITION TIME  TEMP    WIND        PRES    WAVE   SWELL
                       AIR SEA DIR/SP/G            HT/PER HT/PER/DIR
                 (UTC) (F)     (DEG/KT/KT) (MB)    (FT/S) (FT/S/D)
FOLLY BEACH CMAN 0400   81     210/ 13/ 15 1019.0R
BUOY 41004       0500   81 82  210/ 14/ 16 1018.2S   3/ 8   2/ 8
BUOY 41008       0500   82 84  190/ 16/ 19 1018.6F   3/ 9   2/120/ 9
5E ST. MARYS GA  0500      83                N/A     3/ 4
FRYING PAN BUOY  NOT AVBL
BUOY 41025       0500          VRB 14/ 16  1017.9F   3/ 8   2/140/ 8
CAPE LOOKOUT NC  0400   80     200/ 10/ 14 1018.1S
BUOY 41002       0400   81 83  220/ 10/ 12 1020.4R   3/ 8   3/150/ 8
BUOY 41010       0500   82 83  160/ 14/ 16 1019.3R   3/ 8   2/130/ 8
BUOY 41012       NOT AVBL
ST AUGUSTINE FL  0500   78     210/  3/  4 1019.8F
CAPERS NEARSHORE 0400   81     220/ 14/ 16   N/A
FRIPP NEARSHORE  0400   81     210/ 12/ 16   N/A


$$



USA.gov is the U.S. government's official web portal to all federal, state and local government web resources and services.